Time,TemperatureF,DewpointF,PressureIn,WindDirection,WindDirectionDegrees,WindSpeedMPH,WindSpeedGustMPH,Humidity,HourlyPrecipIn,Conditions,Clouds,dailyrainin,SoftwareType,DateUTC
2013-02-25 00:00:00,29.7,26.9,30.02,WNW,290,4.0,5.0,89,0.00,,,0.00,Wunderground v.1.15,2013-02-25 05:00:00,
2013-02-25 00:02:00,29.7,26.9,30.03,WNW,285,4.0,5.0,89,0.00,,,0.00,Wunderground v.1.15,2013-02-25 05:02:00,
2013-02-25 00:04:00,29.7,26.9,30.03,West,277,4.0,5.0,89,0.00,,,0.00,Wunderground v.1.15,2013-02-25 05:04:00,
2013-02-25 00:10:00,29.7,26.9,30.03,West,279,4.0,5.0,89,0.00,,,0.00,Wunderground v.1.15,2013-02-25 05:10:00,
2013-02-25 00:16:00,29.7,26.9,30.02,WNW,283,4.0,5.0,89,0.00,,,0.00,Wunderground v.1.15,2013-02-25 05:16:00,
2013-02-25 00:20:00,29.7,26.9,30.03,West,279,3.0,3.0,89,0.00,,,0.00,Wunderground v.1.15,2013-02-25 05:20:00,
2013-02-25 00:26:00,29.7,26.9,30.02,West,281,3.0,3.0,89,0.00,,,0.00,Wunderground v.1.15,2013-02-25 05:26:00,
2013-02-25 00:32:00,29.7,26.9,30.03,WSW,249,2.0,3.0,89,0.00,,,0.00,Wunderground v.1.15,2013-02-25 05:32:00,
2013-02-25 00:38:00,29.8,27.0,30.03,WNW,286,3.0,6.0,89,0.00,,,0.00,Wunderground v.1.15,2013-02-25 05:38:00,
2013-02-25 00:44:00,29.8,27.0,30.03,West,272,3.0,4.0,89,0.00,,,0.00,Wunderground v.1.15,2013-02-25 05:44:00,
2013-02-25 00:50:00,29.8,27.0,30.03,West,275,3.0,3.0,89,0.00,,,0.00,Wunderground v.1.15,2013-02-25 05:50:00,
2013-02-25 00:56:00,29.9,27.1,30.03,West,273,3.0,3.0,89,0.00,,,0.00,Wunderground v.1.15,2013-02-25 05:56:00,
2013-02-25 01:02:00,29.9,27.1,30.03,WNW,286,3.0,3.0,89,0.00,,,0.00,Wunderground v.1.15,2013-02-25 06:02:00,
2013-02-25 01:08:00,29.9,27.1,30.04,WNW,282,2.0,4.0,89,0.00,,,0.00,Wunderground v.1.15,2013-02-25 06:08:00,
2013-02-25 01:14:00,30.0,27.2,30.04,West,271,2.0,4.0,89,0.00,,,0.00,Wunderground v.1.15,2013-02-25 06:14:00,
2013-02-25 01:20:00,30.1,27.3,30.04,West,272,2.0,3.0,89,0.00,,,0.00,Wunderground v.1.15,2013-02-25 06:20:00,
2013-02-25 01:26:00,30.1,27.3,30.04,WNW,290,3.0,4.0,89,0.00,,,0.00,Wunderground v.1.15,2013-02-25 06:26:00,
2013-02-25 01:32:00,30.2,27.3,30.04,WNW,292,3.0,3.0,89,0.00,,,0.00,Wunderground v.1.15,2013-02-25 06:32:00,
2013-02-25 01:38:00,30.2,27.3,30.05,WNW,287,3.0,4.0,89,0.00,,,0.00,Wunderground v.1.15,2013-02-25 06:38:00,
2013-02-25 01:44:00,30.3,27.2,30.05,WNW,294,2.0,2.0,88,0.00,,,0.00,Wunderground v.1.15,2013-02-25 06:44:00,
2013-02-25 01:50:00,30.3,27.2,30.05,West,271,3.0,3.0,88,0.00,,,0.00,Wunderground v.1.15,2013-02-25 06:50:00,
2013-02-25 01:56:00,30.4,27.3,30.05,West,279,3.0,4.0,88,0.00,,,0.00,Wunderground v.1.15,2013-02-25 06:56:00,
2013-02-25 02:02:00,30.4,27.3,30.05,West,281,3.0,3.0,88,0.00,,,0.00,Wunderground v.1.15,2013-02-25 07:02:00,
2013-02-25 02:08:00,30.5,27.4,30.05,West,281,2.0,3.0,88,0.00,,,0.00,Wunderground v.1.15,2013-02-25 07:08:00,
2013-02-25 02:14:00,30.5,27.4,30.05,NW,304,2.0,3.0,88,0.00,,,0.00,Wunderground v.1.15,2013-02-25 07:14:00,
2013-02-25 02:20:00,30.5,27.4,30.06,NW,304,1.0,1.0,88,0.00,,,0.00,Wunderground v.1.15,2013-02-25 07:20:00,
2013-02-25 02:26:00,30.6,27.5,30.06,NW,306,2.0,3.0,88,0.00,,,0.00,Wunderground v.1.15,2013-02-25 07:26:00,
2013-02-25 02:32:00,30.6,27.5,30.06,NW,306,2.0,2.0,88,0.00,,,0.00,Wunderground v.1.15,2013-02-25 07:32:00,
2013-02-25 02:38:00,30.6,27.5,30.06,NW,306,1.0,2.0,88,0.00,,,0.00,Wunderground v.1.15,2013-02-25 07:38:00,
2013-02-25 02:44:00,30.7,27.6,30.06,NW,307,2.0,3.0,88,0.00,,,0.00,Wunderground v.1.15,2013-02-25 07:44:00,
2013-02-25 02:50:00,30.7,27.6,30.06,WNW,298,2.0,3.0,88,0.00,,,0.00,Wunderground v.1.15,2013-02-25 07:50:00,
2013-02-25 02:56:00,30.7,27.6,30.06,WNW,286,2.0,5.0,88,0.00,,,0.00,Wunderground v.1.15,2013-02-25 07:56:00,
2013-02-25 03:01:00,30.8,27.7,30.06,WNW,288,3.0,3.0,88,0.00,,,0.00,Wunderground v.1.15,2013-02-25 08:01:00,
2013-02-25 03:08:00,30.8,27.7,30.06,WNW,288,2.0,3.0,88,0.00,,,0.00,Wunderground v.1.15,2013-02-25 08:08:00,
2013-02-25 03:14:00,30.8,27.7,30.06,NW,323,1.0,4.0,88,0.00,,,0.00,Wunderground v.1.15,2013-02-25 08:14:00,
2013-02-25 03:20:00,30.9,27.8,30.06,NW,304,2.0,2.0,88,0.00,,,0.00,Wunderground v.1.15,2013-02-25 08:20:00,
2013-02-25 03:26:00,30.9,27.8,30.06,WNW,296,2.0,2.0,88,0.00,,,0.00,Wunderground v.1.15,2013-02-25 08:26:00,
2013-02-25 03:32:00,31.0,27.9,30.06,WNW,296,2.0,3.0,88,0.00,,,0.00,Wunderground v.1.15,2013-02-25 08:32:00,
2013-02-25 03:38:00,31.0,27.9,30.06,West,273,2.0,3.0,88,0.00,,,0.00,Wunderground v.1.15,2013-02-25 08:38:00,
2013-02-25 03:44:00,31.1,28.0,30.06,WNW,290,3.0,3.0,88,0.00,,,0.00,Wunderground v.1.15,2013-02-25 08:44:00,
2013-02-25 03:50:00,31.1,27.7,30.06,West,275,3.0,3.0,87,0.00,,,0.00,Wunderground v.1.15,2013-02-25 08:50:00,
2013-02-25 03:55:00,31.2,27.8,30.07,West,276,2.0,3.0,87,0.00,,,0.00,Wunderground v.1.15,2013-02-25 08:55:00,
2013-02-25 04:02:00,31.2,27.8,30.07,WNW,283,2.0,3.0,87,0.00,,,0.00,Wunderground v.1.15,2013-02-25 09:02:00,
2013-02-25 04:08:00,31.3,28.2,30.08,NW,309,1.0,3.0,88,0.00,,,0.00,Wunderground v.1.15,2013-02-25 09:08:00,
2013-02-25 04:14:00,31.3,27.9,30.07,NW,304,3.0,5.0,87,0.00,,,0.00,Wunderground v.1.15,2013-02-25 09:14:00,
2013-02-25 04:20:00,31.4,28.0,30.08,WNW,286,3.0,4.0,87,0.00,,,0.00,Wunderground v.1.15,2013-02-25 09:20:00,
2013-02-25 04:26:00,31.4,28.0,30.08,West,281,3.0,4.0,87,0.00,,,0.00,Wunderground v.1.15,2013-02-25 09:26:00,
2013-02-25 04:32:00,31.4,28.0,30.08,NW,310,3.0,3.0,87,0.00,,,0.00,Wunderground v.1.15,2013-02-25 09:32:00,
2013-02-25 04:38:00,31.5,28.1,30.08,WNW,301,2.0,3.0,87,0.00,,,0.00,Wunderground v.1.15,2013-02-25 09:38:00,
2013-02-25 04:44:00,31.5,28.1,30.08,NW,313,2.0,3.0,87,0.00,,,0.00,Wunderground v.1.15,2013-02-25 09:44:00,
2013-02-25 04:50:00,31.5,28.1,30.09,NW,321,3.0,5.0,87,0.00,,,0.00,Wunderground v.1.15,2013-02-25 09:50:00,
2013-02-25 04:56:00,31.5,28.1,30.09,NW,325,3.0,5.0,87,0.00,,,0.00,Wunderground v.1.15,2013-02-25 09:56:00,
2013-02-25 05:02:00,31.5,28.1,30.09,NW,309,3.0,5.0,87,0.00,,,0.00,Wunderground v.1.15,2013-02-25 10:02:00,
2013-02-25 05:08:00,31.5,28.1,30.09,NW,323,3.0,5.0,87,0.00,,,0.00,Wunderground v.1.15,2013-02-25 10:08:00,
2013-02-25 05:14:00,31.5,28.1,30.09,NW,313,3.0,4.0,87,0.00,,,0.00,Wunderground v.1.15,2013-02-25 10:14:00,
2013-02-25 05:20:00,31.5,28.1,30.09,NW,319,3.0,3.0,87,0.00,,,0.00,Wunderground v.1.15,2013-02-25 10:20:00,
2013-02-25 05:25:00,31.5,28.1,30.10,NW,319,2.0,3.0,87,0.00,,,0.00,Wunderground v.1.15,2013-02-25 10:25:00,
2013-02-25 05:32:00,31.5,28.1,30.10,NW,319,1.0,2.0,87,0.00,,,0.00,Wunderground v.1.15,2013-02-25 10:32:00,
2013-02-25 05:38:00,31.5,28.1,30.10,NW,315,2.0,3.0,87,0.00,,,0.00,Wunderground v.1.15,2013-02-25 10:38:00,
2013-02-25 05:44:00,31.5,28.1,30.10,NW,315,2.0,2.0,87,0.00,,,0.00,Wunderground v.1.15,2013-02-25 10:44:00,
2013-02-25 05:50:00,31.4,28.0,30.11,NW,311,2.0,2.0,87,0.00,,,0.00,Wunderground v.1.15,2013-02-25 10:50:00,
2013-02-25 05:55:00,31.4,28.0,30.11,WNW,294,2.0,3.0,87,0.00,,,0.00,Wunderground v.1.15,2013-02-25 10:55:00,
2013-02-25 06:02:00,31.4,28.0,30.11,WNW,294,2.0,3.0,87,0.00,,,0.00,Wunderground v.1.15,2013-02-25 11:02:00,
2013-02-25 06:07:00,31.4,28.0,30.11,WNW,294,2.0,3.0,87,0.00,,,0.00,Wunderground v.1.15,2013-02-25 11:07:00,
2013-02-25 06:14:00,31.4,28.0,30.11,WNW,292,2.0,3.0,87,0.00,,,0.00,Wunderground v.1.15,2013-02-25 11:14:00,
2013-02-25 06:19:00,31.5,28.1,30.12,WNW,286,2.0,2.0,87,0.00,,,0.00,Wunderground v.1.15,2013-02-25 11:19:00,
2013-02-25 06:26:00,31.5,28.1,30.11,WNW,290,2.0,3.0,87,0.00,,,0.00,Wunderground v.1.15,2013-02-25 11:26:00,
2013-02-25 06:32:00,31.5,28.1,30.11,WNW,290,2.0,2.0,87,0.00,,,0.00,Wunderground v.1.15,2013-02-25 11:32:00,
2013-02-25 06:38:00,31.5,28.1,30.11,WNW,286,2.0,5.0,87,0.00,,,0.00,Wunderground v.1.15,2013-02-25 11:38:00,
2013-02-25 06:44:00,31.5,28.1,30.12,WNW,303,2.0,5.0,87,0.00,,,0.00,Wunderground v.1.15,2013-02-25 11:44:00,
2013-02-25 06:50:00,31.6,28.2,30.12,WNW,294,2.0,2.0,87,0.00,,,0.00,Wunderground v.1.15,2013-02-25 11:50:00,
2013-02-25 06:56:00,31.6,28.2,30.12,WNW,285,1.0,3.0,87,0.00,,,0.00,Wunderground v.1.15,2013-02-25 11:56:00,
2013-02-25 07:02:00,31.6,28.2,30.12,WNW,286,2.0,3.0,87,0.00,,,0.00,Wunderground v.1.15,2013-02-25 12:02:00,
2013-02-25 07:08:00,31.6,28.2,30.13,West,277,3.0,5.0,87,0.00,,,0.00,Wunderground v.1.15,2013-02-25 12:08:00,
2013-02-25 07:14:00,31.7,28.3,30.13,WNW,298,3.0,4.0,87,0.00,,,0.00,Wunderground v.1.15,2013-02-25 12:14:00,
2013-02-25 07:20:00,31.7,28.3,30.13,WNW,293,2.0,2.0,87,0.00,,,0.00,Wunderground v.1.15,2013-02-25 12:20:00,
2013-02-25 07:26:00,31.7,28.3,30.13,WNW,282,2.0,5.0,87,0.00,,,0.00,Wunderground v.1.15,2013-02-25 12:26:00,
2013-02-25 07:32:00,31.8,28.4,30.13,West,281,3.0,3.0,87,0.00,,,0.00,Wunderground v.1.15,2013-02-25 12:32:00,
2013-02-25 07:37:00,31.8,28.4,30.13,West,279,3.0,3.0,87,0.00,,,0.00,Wunderground v.1.15,2013-02-25 12:37:00,
2013-02-25 07:43:00,31.9,28.5,30.13,West,280,3.0,3.0,87,0.00,,,0.00,Wunderground v.1.15,2013-02-25 12:43:00,
2013-02-25 07:49:00,32.0,28.6,30.14,West,281,2.0,2.0,87,0.00,,,0.00,Wunderground v.1.15,2013-02-25 12:49:00,
2013-02-25 07:56:00,32.0,28.6,30.14,WNW,287,3.0,3.0,87,0.00,,,0.00,Wunderground v.1.15,2013-02-25 12:56:00,
2013-02-25 08:02:00,32.1,28.7,30.14,WNW,287,2.0,3.0,87,0.00,,,0.00,Wunderground v.1.15,2013-02-25 13:02:00,
2013-02-25 08:08:00,32.1,28.7,30.14,WNW,288,2.0,3.0,87,0.00,,,0.00,Wunderground v.1.15,2013-02-25 13:08:00,
2013-02-25 08:14:00,32.2,28.8,30.14,WNW,288,2.0,4.0,87,0.00,,,0.00,Wunderground v.1.15,2013-02-25 13:14:00,
2013-02-25 08:20:00,32.3,28.9,30.14,West,280,3.0,4.0,87,0.00,,,0.00,Wunderground v.1.15,2013-02-25 13:20:00,
2013-02-25 08:26:00,32.4,29.0,30.14,West,279,3.0,5.0,87,0.00,,,0.00,Wunderground v.1.15,2013-02-25 13:26:00,
2013-02-25 08:32:00,32.6,29.2,30.14,WNW,286,4.0,4.0,87,0.00,,,0.00,Wunderground v.1.15,2013-02-25 13:32:00,
2013-02-25 08:38:00,32.7,29.3,30.14,WNW,296,4.0,4.0,87,0.00,,,0.00,Wunderground v.1.15,2013-02-25 13:38:00,
2013-02-25 08:44:00,33.0,29.6,30.14,West,271,3.0,4.0,87,0.00,,,0.00,Wunderground v.1.15,2013-02-25 13:44:00,
2013-02-25 08:50:00,33.3,29.8,30.14,West,279,4.0,4.0,87,0.00,,,0.00,Wunderground v.1.15,2013-02-25 13:50:00,
2013-02-25 08:56:00,33.5,30.0,30.14,NW,317,4.0,4.0,87,0.00,,,0.01,Wunderground v.1.15,2013-02-25 13:56:00,
2013-02-25 09:02:00,34.0,31.1,30.15,NW,320,4.0,4.0,89,0.00,,,0.01,Wunderground v.1.15,2013-02-25 14:02:00,
2013-02-25 09:08:00,34.3,31.4,30.15,NW,314,4.0,4.0,89,0.00,,,0.01,Wunderground v.1.15,2013-02-25 14:08:00,
2013-02-25 09:14:00,35.0,32.1,30.16,NNW,327,4.0,10.0,89,0.00,,,0.02,Wunderground v.1.15,2013-02-25 14:14:00,
2013-02-25 09:20:00,34.5,31.6,30.16,NW,316,5.0,5.0,89,0.00,,,0.02,Wunderground v.1.15,2013-02-25 14:20:00,
2013-02-25 09:26:00,34.6,31.7,30.16,NW,317,5.0,6.0,89,0.00,,,0.02,Wunderground v.1.15,2013-02-25 14:26:00,
2013-02-25 09:32:00,34.7,31.8,30.16,West,281,4.0,5.0,89,0.00,,,0.02,Wunderground v.1.15,2013-02-25 14:32:00,
2013-02-25 09:37:00,35.0,31.8,30.16,NW,304,4.0,6.0,88,0.00,,,0.02,Wunderground v.1.15,2013-02-25 14:37:00,
2013-02-25 09:43:00,35.0,31.8,30.16,NW,319,4.0,6.0,88,0.00,,,0.02,Wunderground v.1.15,2013-02-25 14:43:00,
2013-02-25 09:50:00,34.8,31.6,30.17,NW,317,4.0,4.0,88,0.00,,,0.02,Wunderground v.1.15,2013-02-25 14:50:00,
2013-02-25 09:56:00,34.9,31.7,30.16,NW,319,5.0,6.0,88,0.00,,,0.02,Wunderground v.1.15,2013-02-25 14:56:00,
2013-02-25 10:02:00,35.5,32.3,30.17,WNW,282,5.0,7.0,88,0.00,,,0.03,Wunderground v.1.15,2013-02-25 15:02:00,
2013-02-25 10:08:00,35.7,32.2,30.17,West,280,5.0,7.0,87,0.00,,,0.03,Wunderground v.1.15,2013-02-25 15:08:00,
2013-02-25 10:14:00,36.3,32.5,30.17,NW,308,6.0,7.0,86,0.00,,,0.03,Wunderground v.1.15,2013-02-25 15:14:00,
2013-02-25 10:20:00,36.1,32.3,30.18,West,276,7.0,7.0,86,0.00,,,0.03,Wunderground v.1.15,2013-02-25 15:20:00,
2013-02-25 10:26:00,36.2,32.4,30.18,WNW,294,6.0,7.0,86,0.00,,,0.03,Wunderground v.1.15,2013-02-25 15:26:00,
2013-02-25 10:32:00,36.5,32.7,30.18,West,274,5.0,5.0,86,0.00,,,0.03,Wunderground v.1.15,2013-02-25 15:32:00,
2013-02-25 10:38:00,36.4,32.3,30.18,WNW,293,5.0,7.0,85,0.00,,,0.03,Wunderground v.1.15,2013-02-25 15:38:00,
2013-02-25 10:44:00,36.2,32.1,30.17,NW,313,5.0,5.0,85,0.00,,,0.03,Wunderground v.1.15,2013-02-25 15:44:00,
2013-02-25 10:49:00,36.1,32.0,30.17,West,277,4.0,6.0,85,0.00,,,0.04,Wunderground v.1.15,2013-02-25 15:49:00,
2013-02-25 10:56:00,36.3,31.9,30.18,NW,315,5.0,6.0,84,0.00,,,0.04,Wunderground v.1.15,2013-02-25 15:56:00,
2013-02-25 11:02:00,36.3,32.2,30.18,West,277,5.0,5.0,85,0.00,,,0.04,Wunderground v.1.15,2013-02-25 16:02:00,
2013-02-25 11:08:00,36.9,33.1,30.17,WNW,287,6.0,7.0,86,0.00,,,0.04,Wunderground v.1.15,2013-02-25 16:08:00,
2013-02-25 11:14:00,37.3,32.9,30.17,West,281,6.0,6.0,84,0.00,,,0.04,Wunderground v.1.15,2013-02-25 16:14:00,
2013-02-25 11:20:00,37.7,33.0,30.18,WNW,289,5.0,7.0,83,0.00,,,0.04,Wunderground v.1.15,2013-02-25 16:20:00,
2013-02-25 11:26:00,38.9,33.9,30.18,WNW,299,4.0,7.0,82,0.00,,,0.04,Wunderground v.1.15,2013-02-25 16:26:00,
2013-02-25 11:31:00,39.4,34.1,30.18,West,277,4.0,5.0,81,0.00,,,0.04,Wunderground v.1.15,2013-02-25 16:31:00,
2013-02-25 11:38:00,39.1,33.1,30.18,NW,320,5.0,10.0,79,0.00,,,0.04,Wunderground v.1.15,2013-02-25 16:38:00,
2013-02-25 11:44:00,38.2,32.9,30.18,WNW,288,5.0,7.0,81,0.00,,,0.05,Wunderground v.1.15,2013-02-25 16:44:00,
2013-02-25 11:50:00,38.0,32.7,30.18,West,279,5.0,5.0,81,0.00,,,0.05,Wunderground v.1.15,2013-02-25 16:50:00,
2013-02-25 11:56:00,37.9,32.6,30.18,NW,317,5.0,6.0,81,0.00,,,0.05,Wunderground v.1.15,2013-02-25 16:56:00,
2013-02-25 12:02:00,37.8,32.2,30.18,West,265,5.0,7.0,80,0.00,,,0.05,Wunderground v.1.15,2013-02-25 17:02:00,
2013-02-25 12:08:00,38.5,32.6,30.18,WNW,290,6.0,7.0,79,0.00,,,0.05,Wunderground v.1.15,2013-02-25 17:08:00,
2013-02-25 12:13:00,37.7,31.8,30.18,NW,304,6.0,7.0,79,0.00,,,0.05,Wunderground v.1.15,2013-02-25 17:13:00,
2013-02-25 12:20:00,37.7,31.8,30.18,NW,304,5.0,5.0,79,0.00,,,0.05,Wunderground v.1.15,2013-02-25 17:20:00,
2013-02-25 12:25:00,38.3,32.0,30.19,WNW,296,4.0,5.0,78,0.00,,,0.06,Wunderground v.1.15,2013-02-25 17:25:00,
2013-02-25 12:32:00,38.4,32.1,30.19,WNW,285,4.0,5.0,78,0.00,,,0.06,Wunderground v.1.15,2013-02-25 17:32:00,
2013-02-25 12:37:00,38.3,32.7,30.19,WNW,284,5.0,9.0,80,0.00,,,0.06,Wunderground v.1.15,2013-02-25 17:37:00,
2013-02-25 12:44:00,39.7,33.1,30.19,West,278,5.0,6.0,77,0.00,,,0.06,Wunderground v.1.15,2013-02-25 17:44:00,
2013-02-25 12:49:00,39.5,32.9,30.19,West,279,6.0,11.0,77,0.00,,,0.06,Wunderground v.1.15,2013-02-25 17:49:00,
2013-02-25 12:56:00,40.6,34.0,30.19,NW,309,7.0,13.0,77,0.00,,,0.06,Wunderground v.1.15,2013-02-25 17:56:00,
2013-02-25 13:02:00,41.3,34.0,30.19,WNW,286,9.0,12.0,75,0.00,,,0.06,Wunderground v.1.15,2013-02-25 18:02:00,
2013-02-25 13:08:00,42.1,34.1,30.20,WNW,288,11.0,12.0,73,0.00,,,0.06,Wunderground v.1.15,2013-02-25 18:08:00,
2013-02-25 13:14:00,41.2,33.5,30.20,NW,304,11.0,13.0,74,0.00,,,0.06,Wunderground v.1.15,2013-02-25 18:14:00,
2013-02-25 13:20:00,40.3,33.3,30.20,WNW,288,9.0,12.0,76,0.00,,,0.06,Wunderground v.1.15,2013-02-25 18:20:00,
2013-02-25 13:26:00,40.0,33.4,30.20,West,275,8.0,12.0,77,0.00,,,0.06,Wunderground v.1.15,2013-02-25 18:26:00,
2013-02-25 13:31:00,39.6,33.0,30.20,WSW,253,8.0,9.0,77,0.00,,,0.06,Wunderground v.1.15,2013-02-25 18:31:00,
2013-02-25 13:38:00,39.1,32.8,30.20,West,266,7.0,11.0,78,0.00,,,0.06,Wunderground v.1.15,2013-02-25 18:38:00,
2013-02-25 13:43:00,39.0,32.4,30.20,NNW,328,7.0,12.0,77,0.00,,,0.06,Wunderground v.1.15,2013-02-25 18:43:00,
2013-02-25 13:50:00,38.3,32.0,30.20,WNW,285,9.0,15.0,78,0.00,,,0.06,Wunderground v.1.15,2013-02-25 18:50:00,
2013-02-25 13:56:00,39.0,32.7,30.19,West,277,12.0,15.0,78,0.00,,,0.06,Wunderground v.1.15,2013-02-25 18:56:00,
2013-02-25 14:02:00,40.6,33.6,30.19,North,5,10.0,12.0,76,0.00,,,0.06,Wunderground v.1.15,2013-02-25 19:02:00,
2013-02-25 14:08:00,40.6,33.3,30.20,WNW,298,10.0,13.0,75,0.00,,,0.06,Wunderground v.1.15,2013-02-25 19:08:00,
2013-02-25 14:14:00,41.1,33.1,30.20,West,272,12.0,15.0,73,0.00,,,0.06,Wunderground v.1.15,2013-02-25 19:14:00,
2013-02-25 14:20:00,41.3,33.6,30.20,West,281,11.0,12.0,74,0.00,,,0.06,Wunderground v.1.15,2013-02-25 19:20:00,
2013-02-25 14:26:00,41.5,33.1,30.20,West,265,11.0,17.0,72,0.00,,,0.06,Wunderground v.1.15,2013-02-25 19:26:00,
2013-02-25 14:32:00,40.9,32.9,30.20,West,276,13.0,15.0,73,0.00,,,0.06,Wunderground v.1.15,2013-02-25 19:32:00,
2013-02-25 14:37:00,40.1,32.5,30.20,West,268,11.0,15.0,74,0.00,,,0.06,Wunderground v.1.15,2013-02-25 19:37:00,
2013-02-25 14:44:00,40.0,32.7,30.20,WNW,296,11.0,11.0,75,0.00,,,0.06,Wunderground v.1.15,2013-02-25 19:44:00,
2013-02-25 14:49:00,39.2,32.3,30.20,WNW,292,10.0,15.0,76,0.00,,,0.06,Wunderground v.1.15,2013-02-25 19:49:00,
2013-02-25 14:56:00,38.6,32.3,30.21,WNW,284,9.0,15.0,78,0.00,,,0.06,Wunderground v.1.15,2013-02-25 19:56:00,
2013-02-25 15:01:00,37.9,31.7,30.21,WNW,303,9.0,10.0,78,0.00,,,0.06,Wunderground v.1.15,2013-02-25 20:01:00,
2013-02-25 15:08:00,38.5,31.9,30.21,NW,313,9.0,10.0,77,0.00,,,0.06,Wunderground v.1.15,2013-02-25 20:08:00,
2013-02-25 15:14:00,39.5,32.2,30.21,WNW,293,7.0,7.0,75,0.00,,,0.06,Wunderground v.1.15,2013-02-25 20:14:00,
2013-02-25 15:20:00,39.1,31.5,30.21,WNW,285,8.0,8.0,74,0.00,,,0.06,Wunderground v.1.15,2013-02-25 20:20:00,
2013-02-25 15:26:00,39.2,31.3,30.21,WNW,289,9.0,9.0,73,0.00,,,0.06,Wunderground v.1.15,2013-02-25 20:26:00,
2013-02-25 15:32:00,38.2,30.6,30.21,West,281,7.0,8.0,74,0.00,,,0.06,Wunderground v.1.15,2013-02-25 20:32:00,
2013-02-25 15:38:00,38.2,31.0,30.21,NW,321,7.0,8.0,75,0.00,,,0.06,Wunderground v.1.15,2013-02-25 20:38:00,
2013-02-25 15:44:00,38.9,31.0,30.21,WNW,297,7.0,8.0,73,0.00,,,0.06,Wunderground v.1.15,2013-02-25 20:44:00,
2013-02-25 15:50:00,38.9,31.0,30.20,WSW,252,6.0,6.0,73,0.00,,,0.06,Wunderground v.1.15,2013-02-25 20:50:00,
2013-02-25 15:56:00,38.9,31.0,30.20,NW,306,6.0,7.0,73,0.00,,,0.06,Wunderground v.1.15,2013-02-25 20:56:00,
2013-02-25 16:02:00,37.9,30.0,30.20,WNW,293,8.0,11.0,73,0.00,,,0.06,Wunderground v.1.15,2013-02-25 21:02:00,
2013-02-25 16:08:00,37.4,29.5,30.21,WNW,300,8.0,11.0,73,0.00,,,0.06,Wunderground v.1.15,2013-02-25 21:08:00,
2013-02-25 16:13:00,37.7,30.2,30.21,NW,321,7.0,8.0,74,0.00,,,0.06,Wunderground v.1.15,2013-02-25 21:13:00,
2013-02-25 16:19:00,37.2,29.7,30.21,NW,310,5.0,5.0,74,0.00,,,0.06,Wunderground v.1.15,2013-02-25 21:19:00,
2013-02-25 16:26:00,36.5,29.3,30.21,NW,308,5.0,7.0,75,0.00,,,0.06,Wunderground v.1.15,2013-02-25 21:26:00,
2013-02-25 16:31:00,36.0,29.2,30.21,NNW,327,5.0,5.0,76,0.00,,,0.06,Wunderground v.1.15,2013-02-25 21:31:00,
2013-02-25 16:38:00,35.5,29.0,30.22,NW,314,4.0,6.0,77,0.00,,,0.06,Wunderground v.1.15,2013-02-25 21:38:00,
2013-02-25 16:44:00,35.2,29.0,30.22,NW,306,4.0,5.0,78,0.00,,,0.06,Wunderground v.1.15,2013-02-25 21:44:00,
2013-02-25 16:50:00,35.0,28.8,30.22,NW,309,4.0,4.0,78,0.00,,,0.06,Wunderground v.1.15,2013-02-25 21:50:00,
2013-02-25 16:56:00,34.7,28.9,30.22,WNW,300,4.0,4.0,79,0.00,,,0.06,Wunderground v.1.15,2013-02-25 21:56:00,
2013-02-25 17:02:00,34.6,28.8,30.22,NW,307,4.0,4.0,79,0.00,,,0.06,Wunderground v.1.15,2013-02-25 22:02:00,
2013-02-25 17:08:00,34.3,28.8,30.22,NW,323,3.0,4.0,80,0.00,,,0.06,Wunderground v.1.15,2013-02-25 22:08:00,
2013-02-25 17:14:00,34.2,28.7,30.22,NW,323,3.0,5.0,80,0.00,,,0.06,Wunderground v.1.15,2013-02-25 22:14:00,
2013-02-25 17:20:00,34.0,28.5,30.22,NW,326,2.0,2.0,80,0.00,,,0.06,Wunderground v.1.15,2013-02-25 22:20:00,
2013-02-25 17:26:00,33.8,28.6,30.22,NW,325,3.0,3.0,81,0.00,,,0.06,Wunderground v.1.15,2013-02-25 22:26:00,
2013-02-25 17:32:00,33.7,28.5,30.22,NW,325,2.0,3.0,81,0.00,,,0.06,Wunderground v.1.15,2013-02-25 22:32:00,
2013-02-25 17:38:00,33.5,28.3,30.22,NW,326,2.0,3.0,81,0.00,,,0.06,Wunderground v.1.15,2013-02-25 22:38:00,
2013-02-25 17:44:00,33.2,28.3,30.23,NW,326,2.0,2.0,82,0.00,,,0.06,Wunderground v.1.15,2013-02-25 22:44:00,
2013-02-25 17:49:00,33.0,28.1,30.23,NW,326,2.0,3.0,82,0.00,,,0.06,Wunderground v.1.15,2013-02-25 22:49:00,
2013-02-25 17:56:00,32.7,28.1,30.23,NW,325,2.0,3.0,83,0.00,,,0.06,Wunderground v.1.15,2013-02-25 22:56:00,
2013-02-25 18:01:00,32.4,27.8,30.23,NW,326,2.0,2.0,83,0.00,,,0.06,Wunderground v.1.15,2013-02-25 23:01:00,
2013-02-25 18:07:00,32.2,27.9,30.24,NW,326,1.0,2.0,84,0.00,,,0.06,Wunderground v.1.15,2013-02-25 23:07:00,
2013-02-25 18:13:00,31.9,27.6,30.24,NW,326,1.0,1.0,84,0.00,,,0.06,Wunderground v.1.15,2013-02-25 23:13:00,
2013-02-25 18:20:00,31.7,27.4,30.24,NW,326,1.0,1.0,84,0.00,,,0.06,Wunderground v.1.15,2013-02-25 23:20:00,
2013-02-25 18:26:00,31.4,27.1,30.24,NW,326,1.0,1.0,84,0.00,,,0.06,Wunderground v.1.15,2013-02-25 23:26:00,
2013-02-25 18:32:00,31.0,26.7,30.24,NW,326,0.0,0.0,84,0.00,,,0.06,Wunderground v.1.15,2013-02-25 23:32:00,
2013-02-25 18:38:00,30.7,26.7,30.24,NW,326,0.0,0.0,85,0.00,,,0.06,Wunderground v.1.15,2013-02-25 23:38:00,
2013-02-25 18:44:00,30.4,26.1,30.24,NW,326,0.0,0.0,84,0.00,,,0.06,Wunderground v.1.15,2013-02-25 23:44:00,
2013-02-25 18:50:00,30.0,26.0,30.24,NW,326,0.0,0.0,85,0.00,,,0.06,Wunderground v.1.15,2013-02-25 23:50:00,
2013-02-25 18:56:00,29.7,25.7,30.24,NW,326,0.0,0.0,85,0.00,,,0.06,Wunderground v.1.15,2013-02-25 23:56:00,
2013-02-25 19:02:00,29.2,25.3,30.24,NW,326,0.0,0.0,85,0.00,,,0.06,Wunderground v.1.15,2013-02-26 00:02:00,
2013-02-25 19:08:00,28.9,25.2,30.24,NW,326,0.0,0.0,86,0.00,,,0.06,Wunderground v.1.15,2013-02-26 00:08:00,
2013-02-25 19:14:00,28.6,24.9,30.24,NW,326,0.0,0.0,86,0.00,,,0.06,Wunderground v.1.15,2013-02-26 00:14:00,
2013-02-25 19:20:00,28.2,24.6,30.25,NW,326,0.0,0.0,86,0.00,,,0.06,Wunderground v.1.15,2013-02-26 00:20:00,
2013-02-25 19:26:00,27.9,24.3,30.25,NW,326,0.0,0.0,86,0.00,,,0.06,Wunderground v.1.15,2013-02-26 00:26:00,
2013-02-25 19:32:00,27.6,24.2,30.25,NW,326,0.0,0.0,87,0.00,,,0.06,Wunderground v.1.15,2013-02-26 00:32:00,
2013-02-25 19:38:00,27.4,24.0,30.25,NW,326,0.0,0.0,87,0.00,,,0.06,Wunderground v.1.15,2013-02-26 00:38:00,
2013-02-25 19:43:00,27.1,23.7,30.25,NW,326,0.0,0.0,87,0.00,,,0.06,Wunderground v.1.15,2013-02-26 00:43:00,
2013-02-25 19:50:00,26.9,23.5,30.25,NW,326,0.0,0.0,87,0.00,,,0.06,Wunderground v.1.15,2013-02-26 00:50:00,
2013-02-25 19:56:00,26.7,23.6,30.25,NW,326,0.0,0.0,88,0.00,,,0.06,Wunderground v.1.15,2013-02-26 00:56:00,
2013-02-25 20:02:00,26.5,23.4,30.25,NW,326,0.0,0.0,88,0.00,,,0.06,Wunderground v.1.15,2013-02-26 01:02:00,
2013-02-25 20:08:00,26.2,23.1,30.26,NW,326,0.0,0.0,88,0.00,,,0.06,Wunderground v.1.15,2013-02-26 01:08:00,
2013-02-25 20:14:00,26.0,22.9,30.26,NW,326,0.0,0.0,88,0.00,,,0.06,Wunderground v.1.15,2013-02-26 01:14:00,
2013-02-25 20:20:00,25.7,22.6,30.26,NW,326,0.0,0.0,88,0.00,,,0.06,Wunderground v.1.15,2013-02-26 01:20:00,
2013-02-25 20:26:00,25.5,22.4,30.26,NW,326,0.0,0.0,88,0.00,,,0.06,Wunderground v.1.15,2013-02-26 01:26:00,
2013-02-25 20:32:00,25.3,22.2,30.26,NW,326,0.0,0.0,88,0.00,,,0.06,Wunderground v.1.15,2013-02-26 01:32:00,
2013-02-25 20:38:00,25.1,22.0,30.26,NW,326,0.0,0.0,88,0.00,,,0.06,Wunderground v.1.15,2013-02-26 01:38:00,
2013-02-25 20:43:00,24.9,22.1,30.26,NW,326,0.0,0.0,89,0.00,,,0.06,Wunderground v.1.15,2013-02-26 01:43:00,
2013-02-25 20:49:00,24.8,22.0,30.26,NW,326,0.0,0.0,89,0.00,,,0.06,Wunderground v.1.15,2013-02-26 01:49:00,
2013-02-25 20:56:00,24.7,21.9,30.26,NW,326,0.0,0.0,89,0.00,,,0.06,Wunderground v.1.15,2013-02-26 01:56:00,
2013-02-25 21:02:00,24.4,21.6,30.25,NW,326,0.0,0.0,89,0.00,,,0.06,Wunderground v.1.15,2013-02-26 02:02:00,
2013-02-25 21:08:00,24.3,21.5,30.25,NW,326,0.0,0.0,89,0.00,,,0.06,Wunderground v.1.15,2013-02-26 02:08:00,
2013-02-25 21:14:00,24.2,21.4,30.25,NW,326,0.0,0.0,89,0.00,,,0.06,Wunderground v.1.15,2013-02-26 02:14:00,
2013-02-25 21:20:00,23.9,21.1,30.25,NW,326,0.0,0.0,89,0.00,,,0.06,Wunderground v.1.15,2013-02-26 02:20:00,
2013-02-25 21:26:00,23.8,21.0,30.25,NW,326,0.0,0.0,89,0.00,,,0.06,Wunderground v.1.15,2013-02-26 02:26:00,
2013-02-25 21:31:00,23.8,21.0,30.25,NW,326,0.0,0.0,89,0.00,,,0.06,Wunderground v.1.15,2013-02-26 02:31:00,
2013-02-25 21:37:00,23.6,20.8,30.25,NW,326,0.0,0.0,89,0.00,,,0.06,Wunderground v.1.15,2013-02-26 02:37:00,
2013-02-25 21:44:00,23.4,20.6,30.25,NW,326,0.0,0.0,89,0.00,,,0.06,Wunderground v.1.15,2013-02-26 02:44:00,
2013-02-25 21:49:00,23.3,20.5,30.26,NW,326,0.0,0.0,89,0.00,,,0.06,Wunderground v.1.15,2013-02-26 02:49:00,
2013-02-25 21:56:00,23.1,20.3,30.26,NW,326,0.0,0.0,89,0.00,,,0.06,Wunderground v.1.15,2013-02-26 02:56:00,
2013-02-25 22:02:00,22.9,20.1,30.27,NW,326,0.0,0.0,89,0.00,,,0.06,Wunderground v.1.15,2013-02-26 03:02:00,
2013-02-25 22:08:00,22.8,20.0,30.27,NW,326,0.0,0.0,89,0.00,,,0.06,Wunderground v.1.15,2013-02-26 03:08:00,
2013-02-25 22:14:00,22.7,19.9,30.26,NW,326,0.0,0.0,89,0.00,,,0.06,Wunderground v.1.15,2013-02-26 03:14:00,
2013-02-25 22:20:00,22.7,19.9,30.26,NW,326,0.0,0.0,89,0.00,,,0.06,Wunderground v.1.15,2013-02-26 03:20:00,
2013-02-25 22:26:00,22.7,19.9,30.27,NW,326,0.0,0.0,89,0.00,,,0.06,Wunderground v.1.15,2013-02-26 03:26:00,
2013-02-25 22:31:00,22.7,19.9,30.27,NW,326,0.0,0.0,89,0.00,,,0.06,Wunderground v.1.15,2013-02-26 03:31:00,
2013-02-25 22:37:00,22.7,19.9,30.27,NW,326,0.0,0.0,89,0.00,,,0.06,Wunderground v.1.15,2013-02-26 03:37:00,
2013-02-25 22:44:00,22.7,19.9,30.27,NW,326,0.0,0.0,89,0.00,,,0.06,Wunderground v.1.15,2013-02-26 03:44:00,
2013-02-25 22:50:00,22.6,19.8,30.27,NW,326,0.0,0.0,89,0.00,,,0.06,Wunderground v.1.15,2013-02-26 03:50:00,
2013-02-25 22:56:00,22.6,19.8,30.27,NW,326,0.0,0.0,89,0.00,,,0.06,Wunderground v.1.15,2013-02-26 03:56:00,
2013-02-25 23:02:00,22.6,19.8,30.27,NW,326,0.0,0.0,89,0.00,,,0.06,Wunderground v.1.15,2013-02-26 04:02:00,
2013-02-25 23:08:00,22.5,20.0,30.27,NW,326,0.0,0.0,90,0.00,,,0.06,Wunderground v.1.15,2013-02-26 04:08:00,
2013-02-25 23:14:00,22.4,19.6,30.27,NW,326,0.0,0.0,89,0.00,,,0.06,Wunderground v.1.15,2013-02-26 04:14:00,
2013-02-25 23:20:00,22.3,19.6,30.27,NW,326,0.0,0.0,89,0.00,,,0.06,Wunderground v.1.15,2013-02-26 04:20:00,
2013-02-25 23:26:00,22.2,19.5,30.27,NW,326,0.0,0.0,89,0.00,,,0.06,Wunderground v.1.15,2013-02-26 04:26:00,
2013-02-25 23:32:00,22.2,19.5,30.27,NW,326,0.0,0.0,89,0.00,,,0.06,Wunderground v.1.15,2013-02-26 04:32:00,
2013-02-25 23:38:00,22.1,19.4,30.27,NW,326,0.0,0.0,89,0.00,,,0.06,Wunderground v.1.15,2013-02-26 04:38:00,
2013-02-25 23:44:00,21.8,19.1,30.27,NW,326,0.0,0.0,89,0.00,,,0.06,Wunderground v.1.15,2013-02-26 04:44:00,
2013-02-25 23:50:00,21.7,19.0,30.27,NW,326,0.0,0.0,89,0.00,,,0.06,Wunderground v.1.15,2013-02-26 04:50:00,
2013-02-25 23:56:00,21.6,18.9,30.27,NW,326,0.0,0.0,89,0.00,,,0.06,Wunderground v.1.15,2013-02-26 04:56:00,